Location: Knowlton
(51.2333°N, 1.2667°E)
Time: 04:01:20
(UTC+00:00)

CZ-4C R/B - Pass Details

Date: 18 April 2021
Orbit: 612 x 1390 km, 63.4° (Epoch: 06 May)

Event Time Altitude Azimuth Distance (km) Brightness Sun altitude
Rises 20:13:53 0° 248° (WSW) 3,128 5.7 -11.6°
Reaches altitude 10° 20:16:09 10° 255° (WSW) 2,295 5.0 -11.9°
Maximum altitude 20:21:15 47° 329° (NNW) 1,138 3.4 -12.5°
Drops below altitude 10° 20:27:29 10° 43° (NE) 2,799 4.9 -13.3°
Sets 20:30:30 0° 49° (NE) 3,887 5.5 -13.7°
